Temperature
20 19 19 19 19 20 20 19 19 19 20 20 19 18 18 19 18 18 18 18 19 20 22 22 22 23 23 23 22 22 22 22 21 21 20 20 19 19 19 18 18 18 18 17
18 19 20 20 20 19 19 19 18 19 19 19 18 17 17 17 16 16 16 16 17 18 20 22 22 23 23 23 23 23 22 22 22 21 21 20 20 19 19 18 18 18 17 17
20 20 20 20 19 18 19 18 18 18 18 18 17 17 16 16 16 16 15 15 16 16 18 20 22 23 23 23 24 23 23 22 22 21 21 20 20 19 19 18 18 18 18 17
19 19 19 18 18 18 17 18 18 18 17 16 17 15 16 14 14 15 15 15 15 15 17 19 21 22 22 23 23 23 22 22 22 21 20 20 20 20 19 19 18 18 17 17
18 18 17 17 17 18 17 17 16 16 16 15 15 15 14 13 14 14 14 14 14 14 16 17 19 20 21 21 21 21 21 21 21 20 20 19 19 19 19 18 18 17 17 17
17 18 17 17 17 17 17 16 15 13 14 15 15 14 14 14 14 14 14 14 14 14 15 16 17 18 19 19 20 19 19 19 19 18 18 19 19 19 18 18 17 17 17 17
15 16 16 16 15 15 14 14 13 14 13 14 15 14 14 14 14 13 13 13 13 13 14 15 16 16 17 17 17 18 18 17 17 17 17 18 18 18 18 17 17 17 17 17
14 14 15 15 14 14 13 14 13 13 13 13 14 14 13 14 14 13 13 13 13 13 13 14 15 15 16 16 16 16 16 16 16 16 17 17 17 17 17 17 17 17 16 16
14 14 15 15 14 14 12 12 12 12 13 13 13 14 14 13 13 13 13 13 12 13 13 14 14 15 15 14 14 15 15 15 15 16 17 17 17 17 17 17 17 17 16 16
14 13 14 14 14 13 12 11 10 11 12 13 14 13 12 11 12 12 12 12 12 13 13 14 14 14 14 14 14 14 14 15 15 16 17 17 17 17 17 17 17 16 16 16
13 12 12 12 12 11 11 11 10 10 11 12 13 12 12 11 11 11 12 12 12 12 13 14 14 14 14 14 14 14 15 15 16 16 17 17 17 17 17 17 17 17 16 16
12 10 10 11 12 11 11 10 10 10 11 11 12 11 11 11 11 11 11 11 12 12 13 14 14 14 14 14 15 15 15 16 16 17 17 17 17 17 17 17 17 17 16 16
12 10 9 10 11 10 10 10 11 11 11 11 11 11 12 11 11 11 11 11 11 12 13 14 14 15 15 15 16 16 16 16 16 17 17 17 17 17 17 17 17 17 17 16
12 9 10 10 10 10 10 11 12 11 11 11 11 11 11 10 10 10 10 11 11 12 12 13 14 14 15 15 16 17 17 17 17 17 17 17 17 17 17 17 17 17 17 16
10 9 9 10 11 11 11 10 11 11 11 11 11 10 10 9 9 10 10 10 11 11 12 12 13 13 14 15 16 16 17 17 17 17 17 17 17 17 17 17 17 17 17 16
9 10 10 10 11 11 10 10 10 10 10 10 11 10 9 9 9 10 10 10 11 11 12 13 13 13 14 14 15 15 16 16 16 16 16 16 16 16 16 16 16 16 16 16
9 9 9 9 10 11 9 9 9 9 9 9 9 9 9 9 9 9 10 10 11 12 12 13 13 13 13 13 14 14 14 15 15 15 15 15 15 16 16 16 16 16 16 16
9 7 7 8 10 9 9 10 9 10 9 9 9 9 9 9 10 11 11 11 12 12 13 13 13 13 13 13 13 13 13 13 13 14 14 14 14 14 14 15 15 15 15 15
7 8 7 7 8 9 9 10 9 9 10 9 9 9 9 9 11 12 12 12 12 13 13 13 13 13 13 13 13 13 13 12 12 12 13 13 13 13 13 13 13 13 13 13
8 7 7 7 9 9 9 10 10 9 10 10 9 9 9 9 9 10 12 13 14 14 14 14 13 13 13 13 13 13 12 12 12 12 12 12 12 12 12 12 12 12 12 12
8 6 7 7 8 8 9 10 10 9 9 9 9 9 9 8 9 11 12 13 14 14 14 14 14 14 14 14 13 13 13 12 12 12 11 11 11 11 11 11 11 11 11 11
8 7 7 6 8 8 10 10 9 9 10 10 10 10 10 10 11 12 13 14 15 15 14 14 14 14 14 14 14 13 13 12 12 12 11 11 11 11 11 11 11 11 11 11
7 7 6 7 8 10 11 11 11 10 10 10 10 10 11 11 12 13 14 14 15 15 15 15 15 15 15 14 14 14 13 13 12 12 12 11 11 11 11 11 11 11 11 11
7 8 7 7 8 10 11 11 11 10 10 10 11 11 11 11 12 13 14 14 15 15 15 15 15 15 15 15 15 14 14 13 13 12 12 11 11 11 11 11 11 11 11 11
8 7 7 7 8 10 11 11 11 11 11 11 11 11 11 11 12 13 13 14 15 15 15 15 15 16 16 15 15 15 14 14 13 12 12 11 11 11 11 11 11 10 10 10
7 7 7 8 10 10 11 12 11 11 11 11 11 11 11 11 12 12 13 14 14 15 15 15 16 16 16 16 16 15 15 14 13 13 12 12 11 11 11 11 11 10 10 10
Wind_Speed
4 5 1 4 5 4 4 4 6 6 3 1 4 7 9 7 8 9 9 9 10 11 10 10 13 14 13 12 13 14 14 12 10 7 6 5 5 5 4 5 7 9 9 10
6 4 5 4 1 1 2 4 6 6 2 1 4 7 5 7 10 10 11 12 12 13 12 10 10 13 17 17 16 15 15 13 13 10 6 4 3 3 3 3 4 8 8 8
1 5 5 3 4 3 3 4 5 5 3 3 3 6 4 6 8 13 14 12 13 14 14 12 10 12 15 17 17 15 14 12 11 9 6 4 4 3 3 3 3 4 6 7
4 6 6 6 5 3 5 5 4 3 1 3 1 5 4 7 9 15 18 17 17 18 15 12 9 8 11 13 12 11 11 9 7 8 8 6 6 5 5 4 4 4 5 6
6 7 9 9 7 6 4 5 3 1 2 1 1 3 6 6 10 15 17 18 18 18 16 12 9 4 1 3 6 8 9 8 6 4 4 4 3 3 3 3 5 4 4 4
6 5 6 5 6 5 5 5 4 5 3 2 4 4 3 5 10 15 16 17 18 18 16 13 11 9 8 9 10 11 12 11 8 4 1 3 5 5 5 4 4 3 3 3
9 7 8 7 8 8 8 5 4 4 1 5 1 4 2 7 10 12 15 16 16 15 14 13 11 10 9 10 10 12 13 12 7 2 2 3 5 6 6 5 5 4 3 2
7 8 8 8 5 6 6 2 2 4 4 3 2 3 3 6 9 10 12 14 15 14 12 12 10 8 8 9 9 11 14 9 3 2 3 3 4 4 3 4 4 4 3 3
4 6 5 6 5 4 7 5 2 2 2 2 2 2 2 13 16 17 17 17 17 15 13 11 8 8 7 8 9 10 10 4 2 4 4 3 4 4 4 3 3 3 3 3
2 5 6 6 6 6 3 3 4 1 2 3 0 3 7 16 19 19 18 18 17 15 13 11 7 7 8 8 7 7 4 2 5 5 4 3 3 4 4 4 4 4 4 4
4 2 7 6 7 7 8 6 4 3 1 1 1 2 6 11 14 15 16 16 16 14 11 8 5 6 8 7 5 3 3 5 5 4 3 3 2 3 3 3 3 4 4 5
3 4 4 4 3 5 4 5 3 2 2 1 1 1 6 11 12 13 15 16 16 13 9 5 4 4 3 1 3 5 5 4 4 3 3 2 2 2 3 2 3 4 4 5
4 5 5 8 7 8 6 8 4 1 1 2 1 2 8 13 15 15 16 17 15 14 11 9 6 4 2 3 5 5 4 4 4 3 3 3 2 2 2 2 3 4 4 5
5 5 4 2 4 6 9 15 14 7 4 4 5 6 12 18 18 18 18 17 14 13 13 12 10 7 5 5 5 4 2 2 4 4 3 2 2 2 2 2 2 3 4 5
5 5 4 4 4 7 13 17 17 14 10 7 7 7 12 16 15 15 16 16 15 15 14 13 11 9 8 8 8 8 7 5 3 4 2 1 1 1 1 1 2 2 3 4
5 5 4 1 1 7 11 17 15 11 9 8 8 7 13 14 12 14 15 17 15 14 13 12 11 11 11 11 10 10 10 10 9 9 7 6 5 5 4 4 3 3 2 2
3 4 3 0 4 2 7 10 9 6 8 8 7 9 15 14 15 13 13 15 14 13 11 10 10 9 9 9 9 10 9 9 10 10 9 9 8 8 8 7 6 6 5 3
4 4 4 2 4 4 4 4 4 5 4 8 9 11 13 14 14 7 7 12 13 12 10 9 8 8 8 7 7 7 8 8 9 9 9 9 9 8 8 8 8 7 5 5
3 6 4 4 3 1 5 3 3 3 3 5 9 12 14 15 7 5 10 13 11 8 7 5 5 5 6 7 7 7 8 8 8 8 8 8 8 8 8 8 7 6 6 6
7 5 5 4 4 1 5 4 3 2 2 3 6 9 11 11 8 9 15 15 12 9 6 5 5 5 6 7 6 7 7 7 8 7 7 7 7 7 7 7 6 5 5 6
5 5 4 4 2 4 6 4 1 2 4 7 5 6 6 5 5 11 15 11 8 7 5 4 5 5 5 6 6 7 6 6 5 5 6 7 7 6 6 6 6 6 6 7
3 3 3 3 2 5 4 1 3 5 4 4 5 5 6 8 10 10 10 10 10 8 7 5 5 5 5 4 4 5 5 5 3 4 5 6 6 6 6 6 7 7 7 8
5 6 5 6 5 5 4 5 4 4 3 5 4 6 7 7 8 9 9 10 9 8 7 5 4 6 6 4 2 3 4 3 1 3 4 4 5 5 6 6 7 6 7 6
3 3 4 3 5 5 5 4 4 4 6 7 7 8 6 6 8 9 8 8 8 7 6 5 5 5 6 5 3 3 3 0 1 1 2 3 4 5 5 5 5 5 6 6
7 7 4 4 5 4 7 7 6 5 6 7 6 5 5 6 7 7 7 8 8 7 6 5 5 6 7 6 5 4 2 2 2 1 1 2 3 3 3 3 3 4 3 4
6 8 8 8 8 7 7 6 5 5 5 5 5 6 6 5 7 7 7 7 7 8 7 7 7 7 7 6 6 5 3 4 3 1 1 1 2 2 2 2 2 2 2 5
Wind_Direction
29 50 325 254 218 213 204 220 253 261 272 279 275 285 305 343 2 347 336 323 308 289 275 258 238 223 214 210 201 197 195 185 172 168 174 181 197 194 195 192 192 193 196 197
28 348 293 286 306 214 224 253 266 283 342 267 298 297 330 22 23 7 353 340 327 312 301 285 257 230 214 210 205 199 197 188 184 186 175 165 154 169 177 170 177 187 187 188
5 311 341 33 19 346 279 240 258 269 347 38 345 320 4 4 15 10 4 350 340 328 312 301 279 240 223 215 206 199 193 188 186 167 141 113 100 97 130 172 186 186 184 183
34 1 24 36 15 352 298 301 273 263 287 292 30 293 321 342 353 4 358 353 346 340 330 317 301 263 227 217 201 184 170 165 161 148 163 171 175 182 192 176 169 164 176 182
10 17 37 30 345 346 307 336 358 331 193 282 309 232 306 351 357 352 348 347 346 344 343 344 341 322 262 155 127 127 124 113 108 120 169 187 170 157 138 137 155 158 164 174
8 14 40 355 333 355 342 358 25 42 92 247 239 193 329 14 350 340 341 344 346 348 351 0 13 28 48 69 87 98 99 90 80 74 202 202 171 156 153 159 160 154 150 159
350 4 3 2 360 358 19 28 353 335 336 240 248 149 64 5 357 342 337 340 346 352 355 1 19 27 41 59 75 89 88 77 61 29 253 211 184 172 173 171 168 156 155 167
5 334 1 8 11 329 339 17 214 256 242 282 359 135 109 15 353 346 343 342 347 354 359 3 19 32 45 55 66 83 85 81 57 274 247 213 178 168 168 167 163 170 177 177
358 301 342 6 14 32 358 348 290 256 272 265 288 89 92 359 356 352 350 348 347 347 353 359 14 34 51 62 67 79 91 101 249 242 228 197 179 170 170 166 166 172 172 167
37 307 326 330 15 25 34 332 9 357 251 243 235 64 360 348 344 343 344 344 341 341 349 353 16 42 51 54 54 63 79 232 248 232 213 194 186 181 173 167 173 175 170 159
60 48 330 7 24 350 357 7 358 315 278 237 139 70 12 342 336 336 339 341 341 339 341 346 29 56 55 42 17 339 267 249 243 220 200 181 178 174 166 166 168 166 166 164
61 89 340 319 347 19 22 350 314 311 348 4 81 73 5 347 345 348 348 347 346 349 354 6 62 81 67 11 286 271 263 246 232 203 178 157 155 147 145 151 158 165 174 181
71 64 8 350 359 12 2 344 328 234 22 24 51 33 359 357 359 360 355 353 357 6 20 33 43 42 354 304 284 279 271 253 227 196 168 149 155 155 161 175 176 180 188 193
92 73 89 48 348 350 358 12 26 40 41 49 30 4 358 359 356 354 355 357 4 18 31 37 35 28 9 350 337 324 304 232 199 168 159 163 182 201 205 205 204 204 199 200
72 86 86 100 80 50 33 21 24 36 29 31 12 9 358 349 345 346 353 359 10 21 28 31 33 29 24 24 23 25 27 34 68 92 81 49 352 350 7 336 292 264 231 221
61 109 122 135 144 54 35 17 14 20 17 13 10 10 347 339 345 353 359 2 7 12 16 17 25 28 31 32 31 34 37 38 48 54 44 30 28 29 23 2 339 328 306 268
58 107 110 33 304 22 20 356 357 1 23 9 3 343 336 343 343 342 352 358 0 360 1 7 13 17 20 21 25 30 28 33 44 46 39 31 29 31 24 19 19 11 356 346
109 96 100 71 52 54 284 289 326 336 29 17 355 342 341 334 316 308 356 358 351 347 348 353 1 8 10 13 19 25 29 33 37 35 30 24 24 24 20 24 22 12 8 8
85 122 102 93 87 353 321 341 359 334 343 360 346 341 342 336 328 353 0 354 339 329 329 337 351 359 5 8 7 29 29 28 31 26 21 15 17 20 21 19 11 6 9 14
38 69 101 101 104 208 264 289 313 222 306 338 338 333 338 354 20 340 333 334 330 331 334 345 352 3 6 356 4 31 23 24 20 13 10 11 17 23 22 16 13 11 20 22
19 33 74 112 142 247 249 288 34 119 270 306 309 308 322 335 273 285 307 317 323 328 333 351 2 357 343 344 7 21 15 9 357 7 18 21 20 27 28 28 27 25 29 33
170 138 155 137 153 240 242 145 163 215 255 283 286 292 302 298 295 304 318 331 339 343 341 347 347 337 330 343 5 7 356 338 358 29 31 25 22 27 30 35 32 31 32 35
189 190 186 187 209 232 219 210 223 200 244 267 270 286 299 302 309 320 325 332 333 334 332 329 324 323 324 328 333 339 326 333 40 45 31 18 21 27 29 36 33 31 32 32
243 154 144 223 256 245 245 253 259 232 235 257 271 283 287 288 300 312 319 325 331 330 324 322 317 316 312 310 297 280 296 223 135 57 16 9 14 19 28 34 33 35 30 25
210 167 172 226 252 257 266 249 248 258 262 276 288 279 280 291 301 306 311 315 320 320 315 315 307 295 291 296 288 275 242 172 172 192 4 9 11 16 30 39 31 25 25 13
191 172 175 208 204 185 220 226 220 234 258 279 296 310 315 306 300 306 307 305 310 312 312 314 310 300 293 290 281 268 220 185 185 218 341 7 2 9 33 38 20 359 345 355
Height
1499 1503 1507 1504 1503 1503 1505 1508 1511 1506 1499 1501 1503 1502 1498 1497 1496 1496 1495 1493 1491 1489 1488 1488 1489 1491 1494 1496 1499 1501 1503 1506 1508 1510 1513 1515 1517 1520 1522 1524 1526 1528 1529 1531
1505 1507 1502 1500 1500 1502 1505 1509 1510 1504 1500 1501 1504 1504 1500 1500 1501 1500 1498 1494 1490 1486 1483 1482 1483 1484 1486 1489 1492 1495 1498 1502 1505 1507 1510 1513 1515 1518 1520 1522 1524 1525 1527 1528
1508 1506 1501 1501 1504 1507 1507 1510 1509 1508 1504 1503 1506 1507 1505 1503 1502 1500 1498 1494 1490 1485 1481 1478 1477 1477 1479 1481 1485 1488 1492 1497 1501 1505 1508 1511 1513 1515 1518 1519 1521 1523 1525 1526
1507 1506 1504 1506 1508 1508 1513 1506 1505 1506 1510 1515 1511 1521 1510 1508 1504 1500 1498 1494 1489 1483 1478 1475 1473 1472 1473 1475 1478 1482 1487 1492 1498 1502 1506 1508 1510 1512 1515 1517 1519 1521 1522 1524
1512 1510 1511 1513 1512 1509 1509 1505 1506 1506 1510 1516 1515 1519 1517 1510 1508 1504 1501 1497 1491 1485 1478 1473 1470 1469 1469 1470 1474 1478 1482 1487 1494 1500 1504 1508 1509 1511 1513 1514 1516 1518 1519 1521
1514 1512 1513 1515 1511 1509 1508 1508 1510 1514 1516 1523 1516 1521 1521 1516 1514 1508 1503 1498 1492 1485 1479 1474 1471 1469 1468 1468 1471 1474 1479 1484 1491 1497 1503 1506 1508 1509 1510 1512 1513 1515 1517 1518
1525 1520 1518 1516 1516 1514 1515 1521 1528 1526 1529 1525 1513 1517 1521 1516 1514 1511 1506 1500 1494 1487 1481 1477 1473 1472 1471 1471 1471 1472 1476 1481 1488 1495 1502 1505 1507 1508 1509 1510 1511 1513 1514 1516
1538 1536 1526 1522 1523 1524 1523 1524 1534 1536 1533 1526 1515 1518 1520 1516 1514 1511 1507 1501 1495 1489 1484 1479 1476 1474 1473 1473 1472 1472 1475 1482 1488 1495 1501 1504 1506 1507 1508 1509 1510 1511 1513 1514
1539 1537 1527 1525 1524 1525 1527 1528 1527 1530 1526 1526 1522 1517 1515 1514 1512 1509 1505 1500 1495 1490 1485 1481 1478 1476 1475 1475 1474 1474 1477 1484 1490 1496 1500 1503 1505 1506 1507 1508 1510 1511 1512 1512
1535 1540 1533 1529 1527 1527 1530 1530 1533 1532 1533 1531 1524 1524 1528 1522 1517 1512 1506 1502 1497 1491 1486 1483 1480 1478 1476 1477 1478 1478 1483 1489 1493 1497 1499 1502 1504 1506 1507 1508 1509 1510 1510 1510
1536 1543 1541 1536 1537 1538 1535 1534 1535 1536 1532 1532 1531 1535 1530 1528 1522 1516 1510 1504 1498 1492 1488 1485 1483 1481 1481 1481 1484 1485 1489 1492 1494 1497 1499 1501 1503 1505 1506 1506 1507 1508 1508 1508
1539 1546 1549 1543 1539 1537 1537 1538 1536 1537 1534 1532 1533 1539 1530 1527 1522 1517 1511 1504 1498 1493 1489 1487 1486 1485 1486 1487 1489 1490 1492 1493 1495 1496 1498 1500 1502 1503 1504 1504 1505 1506 1506 1506
1540 1548 1556 1550 1548 1544 1542 1537 1533 1533 1534 1534 1535 1539 1530 1527 1522 1517 1512 1506 1500 1495 1491 1489 1489 1489 1489 1489 1490 1490 1491 1492 1493 1495 1497 1499 1500 1501 1502 1503 1503 1503 1504 1504
1540 1552 1559 1563 1559 1553 1547 1540 1534 1533 1536 1537 1538 1537 1533 1529 1524 1519 1515 1509 1504 1500 1496 1493 1492 1491 1491 1490 1489 1489 1489 1490 1492 1494 1495 1496 1497 1498 1499 1500 1500 1501 1501 1502
1543 1556 1558 1558 1555 1553 1552 1548 1543 1542 1542 1542 1541 1539 1539 1535 1530 1525 1519 1514 1509 1504 1501 1499 1497 1496 1494 1492 1491 1490 1489 1490 1491 1492 1492 1493 1494 1495 1496 1496 1497 1498 1498 1499
1548 1555 1558 1559 1555 1555 1556 1555 1552 1549 1548 1546 1543 1542 1541 1537 1532 1527 1522 1517 1513 1509 1507 1505 1502 1500 1498 1496 1494 1493 1491 1491 1491 1491 1491 1492 1492 1492 1492 1493 1494 1494 1495 1496
1552 1555 1561 1563 1557 1558 1565 1563 1560 1557 1556 1553 1551 1550 1543 1537 1533 1530 1526 1521 1518 1515 1513 1510 1507 1505 1502 1501 1499 1497 1495 1494 1493 1492 1491 1491 1490 1490 1490 1490 1491 1491 1492 1492
1552 1559 1565 1567 1564 1570 1570 1561 1561 1558 1557 1556 1553 1550 1545 1540 1535 1532 1530 1525 1522 1520 1518 1515 1513 1510 1508 1506 1504 1502 1500 1497 1495 1493 1492 1490 1490 1489 1489 1488 1489 1489 1489 1489
1551 1556 1564 1570 1572 1570 1566 1561 1561 1560 1558 1556 1554 1550 1545 1540 1534 1532 1530 1528 1525 1523 1522 1520 1518 1515 1513 1511 1509 1506 1503 1500 1498 1496 1494 1492 1491 1489 1489 1488 1488 1488 1488 1487
1554 1556 1564 1569 1570 1572 1568 1560 1559 1561 1558 1556 1554 1551 1547 1542 1540 1538 1532 1529 1528 1526 1525 1524 1522 1520 1517 1514 1512 1510 1507 1504 1502 1499 1497 1495 1493 1492 1491 1490 1490 1489 1488 1487
1562 1565 1568 1569 1570 1567 1561 1558 1558 1564 1562 1555 1553 1551 1548 1546 1546 1540 1535 1532 1530 1529 1528 1526 1525 1522 1520 1518 1515 1513 1511 1508 1506 1504 1501 1499 1497 1496 1495 1494 1493 1491 1490 1488
1564 1566 1569 1571 1569 1569 1556 1557 1559 1559 1554 1553 1552 1550 1548 1545 1542 1539 1536 1533 1532 1530 1529 1528 1526 1525 1523 1521 1519 1516 1514 1512 1510 1507 1505 1503 1501 1500 1498 1497 1495 1494 1492 1490
1561 1561 1562 1564 1563 1555 1554 1554 1554 1554 1553 1552 1551 1549 1547 1545 1542 1540 1537 1535 1533 1532 1530 1529 1528 1526 1525 1523 1521 1519 1517 1514 1512 1510 1508 1506 1504 1502 1501 1499 1498 1496 1493 1491
1556 1555 1557 1558 1555 1553 1553 1553 1553 1552 1552 1551 1550 1549 1547 1545 1543 1541 1538 1536 1534 1533 1531 1530 1528 1527 1526 1524 1522 1520 1518 1516 1514 1512 1510 1508 1506 1504 1503 1501 1499 1496 1494 1492
1550 1552 1554 1555 1552 1551 1551 1551 1551 1551 1551 1550 1549 1548 1547 1545 1543 1541 1539 1536 1535 1533 1531 1529 1528 1526 1525 1524 1522 1521 1519 1517 1515 1513 1511 1510 1508 1506 1504 1502 1500 1497 1495 1493
1542 1545 1549 1549 1545 1547 1547 1549 1550 1550 1550 1549 1549 1548 1546 1545 1542 1540 1538 1536 1534 1532 1530 1529 1527 1525 1524 1523 1522 1520 1518 1517 1515 1514 1512 1510 1508 1507 1505 1503 1501 1499 1497 1495